• In Hungary
  • List of Countries
  • For 7 days
  • Water Temperature
  • Satellite Maps
  • Weather Map
  • News
  • Weather Widgets
  • user-avatar
    Login

    Hourly Weather Maaseik

    Today, 20 October, Friday

    Time Temperature Precipitation Wind Pressure Humidity
    00:00 +18°C° 0 mm 4 mps 754 mmHg 59%
    01:00 +17°C° 0 mm 5 mps 754 mmHg 63%
    02:00 +16°C° 0 mm 5 mps 754 mmHg 66%
    03:00 +16°C° 0 mm 5 mps 754 mmHg 70%
    04:00 +16°C° 0.3 mm 5 mps 754 mmHg 74%
    05:00 +15°C° 0.3 mm 5 mps 754 mmHg 77%
    06:00 +15°C° 0.3 mm 5 mps 754 mmHg 81%
    07:00 +15°C° 0.3 mm 6 mps 754 mmHg 79%
    08:00 +15°C° 0.3 mm 6 mps 755 mmHg 77%
    09:00 +15°C° 0.3 mm 7 mps 755 mmHg 74%
    10:00 +15°C° 0.1 mm 7 mps 755 mmHg 70%
    11:00 +16°C° 0.1 mm 7 mps 755 mmHg 66%
    12:00 +16°C° 0.1 mm 7 mps 756 mmHg 61%
    13:00 +16°C° 0 mm 7 mps 756 mmHg 62%
    14:00 +15°C° 0 mm 7 mps 756 mmHg 62%
    15:00 +15°C° 0 mm 6 mps 756 mmHg 63%
    16:00 +14°C° 0 mm 6 mps 757 mmHg 65%
    17:00 +13°C° 0 mm 5 mps 757 mmHg 67%
    18:00 +13°C° 0 mm 4 mps 758 mmHg 68%
    19:00 +12°C° 0 mm 4 mps 758 mmHg 71%
    20:00 +12°C° 0 mm 4 mps 758 mmHg 73%
    21:00 +11°C° 0 mm 3 mps 758 mmHg 75%
    22:00 +11°C° 0 mm 3 mps 758 mmHg 72%
    23:00 +12°C° 0 mm 3 mps 758 mmHg 70%

    Tomorrow, 21 October, Saturday

    Time Temperature Precipitation Wind Pressure Humidity
    00:00 +13°C° 0 mm 3 mps 757 mmHg 67%
    01:00 +13°C° 0 mm 4 mps 757 mmHg 69%
    02:00 +13°C° 0 mm 4 mps 757 mmHg 70%
    03:00 +13°C° 0 mm 4 mps 756 mmHg 71%
    04:00 +13°C° 0 mm 4 mps 756 mmHg 75%
    05:00 +13°C° 0 mm 5 mps 755 mmHg 79%
    06:00 +13°C° 0 mm 5 mps 755 mmHg 82%
    07:00 +14°C° 0.4 mm 5 mps 755 mmHg 84%
    08:00 +14°C° 0.4 mm 5 mps 755 mmHg 85%
    09:00 +15°C° 0.4 mm 5 mps 755 mmHg 87%
    10:00 +15°C° 0.1 mm 5 mps 755 mmHg 85%
    11:00 +15°C° 0.1 mm 6 mps 755 mmHg 83%
    12:00 +15°C° 0.1 mm 6 mps 755 mmHg 81%
    13:00 +15°C° 0.1 mm 6 mps 755 mmHg 76%
    14:00 +15°C° 0.1 mm 6 mps 755 mmHg 71%
    15:00 +16°C° 0.1 mm 6 mps 755 mmHg 66%
    16:00 +15°C° 0 mm 5 mps 755 mmHg 68%
    17:00 +14°C° 0 mm 5 mps 756 mmHg 69%
    18:00 +12°C° 0 mm 5 mps 756 mmHg 70%
    19:00 +12°C° 0 mm 5 mps 756 mmHg 69%
    20:00 +11°C° 0 mm 6 mps 756 mmHg 68%
    21:00 +11°C° 0 mm 6 mps 756 mmHg 68%
    22:00 +10°C° 0 mm 6 mps 756 mmHg 68%
    23:00 +10°C° 0 mm 6 mps 756 mmHg 68%

    Day after tomorrow, 22 October, Sunday

    Time Temperature Precipitation Wind Pressure Humidity
    00:00 +10°C° 0 mm 7 mps 756 mmHg 68%
    01:00 +9°C° 0 mm 7 mps 756 mmHg 69%
    02:00 +9°C° 0 mm 7 mps 756 mmHg 70%
    03:00 +9°C° 0 mm 7 mps 755 mmHg 71%
    04:00 +9°C° 0 mm 7 mps 755 mmHg 71%
    05:00 +9°C° 0 mm 7 mps 756 mmHg 71%
    06:00 +9°C° 0 mm 7 mps 756 mmHg 72%
    07:00 +9°C° 0.1 mm 7 mps 756 mmHg 73%
    08:00 +9°C° 0.1 mm 8 mps 756 mmHg 73%
    09:00 +10°C° 0.1 mm 8 mps 756 mmHg 74%
    10:00 +10°C° 0.1 mm 8 mps 756 mmHg 72%
    11:00 +10°C° 0.1 mm 8 mps 756 mmHg 71%
    12:00 +11°C° 0.1 mm 8 mps 756 mmHg 70%
    13:00 +10°C° 0.2 mm 7 mps 756 mmHg 72%
    14:00 +10°C° 0.2 mm 7 mps 756 mmHg 74%
    15:00 +10°C° 0.2 mm 6 mps 756 mmHg 75%
    16:00 +10°C° 0.1 mm 6 mps 756 mmHg 77%
    17:00 +9°C° 0.1 mm 5 mps 757 mmHg 79%
    18:00 +9°C° 0.1 mm 5 mps 757 mmHg 81%
    19:00 +8°C° 0.2 mm 5 mps 757 mmHg 83%
    20:00 +8°C° 0.2 mm 5 mps 757 mmHg 85%
    21:00 +8°C° 0.2 mm 5 mps 757 mmHg 87%
    22:00 +8°C° 0.3 mm 5 mps 757 mmHg 88%
    23:00 +9°C° 0.3 mm 5 mps 757 mmHg 89%

    23 October, Monday

    Time Temperature Precipitation Wind Pressure Humidity
    00:00 +9°C° 0.3 mm 5 mps 758 mmHg 90%
    01:00 +9°C° 0.1 mm 5 mps 758 mmHg 90%
    02:00 +9°C° 0.1 mm 5 mps 758 mmHg 90%
    03:00 +9°C° 0.1 mm 5 mps 758 mmHg 90%
    04:00 +9°C° 0.1 mm 5 mps 759 mmHg 91%
    05:00 +10°C° 0.1 mm 4 mps 759 mmHg 91%
    06:00 +8°C° 0.1 mm 4 mps 760 mmHg 91%
    07:00 +10°C° 0 mm 4 mps 760 mmHg 88%
    08:00 +10°C° 0 mm 5 mps 760 mmHg 84%
    09:00 +10°C° 0 mm 5 mps 761 mmHg 81%
    10:00 +12°C° 0 mm 5 mps 761 mmHg 78%
    11:00 +13°C° 0 mm 5 mps 761 mmHg 75%
    12:00 +14°C° 0 mm 5 mps 761 mmHg 71%
    13:00 +13°C° 0.2 mm 4 mps 761 mmHg 76%
    14:00 +13°C° 0.2 mm 4 mps 761 mmHg 80%
    15:00 +12°C° 0.2 mm 4 mps 761 mmHg 85%
    16:00 +12°C° 0.4 mm 4 mps 761 mmHg 87%
    17:00 +12°C° 0.4 mm 3 mps 761 mmHg 89%
    18:00 +12°C° 0.4 mm 3 mps 762 mmHg 91%
    19:00 +12°C° 0.4 mm 3 mps 762 mmHg 92%
    20:00 +12°C° 0.4 mm 3 mps 762 mmHg 93%
    21:00 +12°C° 0.4 mm 3 mps 762 mmHg 94%
    22:00 +13°C° 0.6 mm 3 mps 762 mmHg 94%
    23:00 +13°C° 0.6 mm 3 mps 762 mmHg 95%

    24 October, Tuesday

    Time Temperature Precipitation Wind Pressure Humidity
    00:00 +13°C° 0.6 mm 3 mps 762 mmHg 95%
    01:00 +14°C° 0.1 mm 3 mps 762 mmHg 96%
    02:00 +14°C° 0.1 mm 3 mps 762 mmHg 96%
    03:00 +14°C° 0.1 mm 3 mps 762 mmHg 96%
    04:00 +14°C° 0.1 mm 3 mps 762 mmHg 97%
    05:00 +14°C° 0.1 mm 3 mps 762 mmHg 97%
    06:00 +13°C° 0.1 mm 3 mps 762 mmHg 97%
    07:00 +14°C° 0.1 mm 3 mps 763 mmHg 96%
    08:00 +16°C° 0.1 mm 3 mps 763 mmHg 94%
    09:00 +16°C° 0.1 mm 3 mps 764 mmHg 93%
    10:00 +16°C° 0.1 mm 3 mps 764 mmHg 93%
    11:00 +17°C° 0.1 mm 3 mps 764 mmHg 93%
    12:00 +17°C° 0.1 mm 3 mps 764 mmHg 92%
    13:00 +17°C° 0.1 mm 3 mps 764 mmHg 93%
    14:00 +17°C° 0.1 mm 2 mps 764 mmHg 94%
    15:00 +17°C° 0.1 mm 2 mps 764 mmHg 95%
    16:00 +17°C° 0.1 mm 2 mps 765 mmHg 95%
    17:00 +16°C° 0.1 mm 2 mps 765 mmHg 96%
    18:00 +16°C° 0.1 mm 2 mps 765 mmHg 96%
    19:00 +16°C° 0 mm 2 mps 766 mmHg 96%
    20:00 +16°C° 0 mm 2 mps 766 mmHg 96%
    21:00 +15°C° 0 mm 2 mps 766 mmHg 95%
    22:00 +15°C° 0 mm 2 mps 766 mmHg 95%
    23:00 +15°C° 0 mm 2 mps 766 mmHg 95%

    25 October, Wednesday

    Time Temperature Precipitation Wind Pressure Humidity
    00:00 +14°C° 0 mm 2 mps 766 mmHg 95%
    01:00 +14°C° 0 mm 2 mps 767 mmHg 95%
    02:00 +14°C° 0 mm 2 mps 767 mmHg 95%
    03:00 +14°C° 0 mm 2 mps 767 mmHg 95%
    04:00 +14°C° 0 mm 2 mps 767 mmHg 95%
    05:00 +14°C° 0 mm 2 mps 767 mmHg 94%
    06:00 +14°C° 0 mm 2 mps 767 mmHg 94%
    07:00 +14°C° 0 mm 2 mps 768 mmHg 91%
    08:00 +15°C° 0 mm 2 mps 768 mmHg 89%
    09:00 +16°C° 0 mm 2 mps 768 mmHg 86%
    10:00 +17°C° 0 mm 2 mps 768 mmHg 83%
    11:00 +18°C° 0 mm 2 mps 768 mmHg 79%
    12:00 +18°C° 0 mm 2 mps 768 mmHg 76%
    13:00 +18°C° 0 mm 2 mps 768 mmHg 77%
    14:00 +18°C° 0 mm 2 mps 768 mmHg 77%
    15:00 +20°C° 0 mm 1 mps 767 mmHg 77%
    16:00 +18°C° 0 mm 1 mps 768 mmHg 82%
    17:00 +16°C° 0 mm 1 mps 768 mmHg 86%
    18:00 +15°C° 0 mm 1 mps 768 mmHg 90%
    19:00 +15°C° 0 mm 1 mps 768 mmHg 91%
    20:00 +14°C° 0 mm 1 mps 769 mmHg 92%
    21:00 +14°C° 0 mm 1 mps 769 mmHg 92%
    22:00 +14°C° 0 mm 1 mps 769 mmHg 93%
    23:00 +14°C° 0 mm 1 mps 769 mmHg 93%
    Show more